Weather History for Ft. Stewart, GA

Change the Weather History Date:

Saturday, October 13, 2012

  Actual Average Record
Temperature  
Mean Temperature 69 °F -  
Max Temperature 79 °F 80 °F 88 °F (1975)
Min Temperature 60 °F 56 °F 44 °F (1976)
Cooling Degree Days 4    
Growing Degree Days 19 (Base 50)    
Moisture  
Dew Point 62 °F    
Average Humidity 74    
Maximum Humidity 96    
Minimum Humidity 60    
Precipitation  
Precipitation 0.00 in - - ()
Sea Level Pressure  
Sea Level Pressure 30.26 in    
Wind  
Wind Speed 6 mph (NE)    
Max Wind Speed 14 mph    
Max Gust Speed 22 mph    
Visibility 10 miles    
Events      
Averages and records for this station are not official NWS values.
T = Trace of Precipitation, MM = Missing Value Source: NWS Daily Summary

Daily Weather History Graph

Daily Weather History Graph

Search for Another Location

Airport:

Trip Planner

Search our weather history database for the weather conditions in past years. The results will help you decide how hot, cold, wet, or windy it might be!

Date:

Astronomy

Oct. 13, 2012 Rise Set
Actual Time 7:28 AM EDT 6:55 PM EDT
Civil Twilight 7:03 AM EDT 7:20 PM EDT
Nautical Twilight 6:35 AM EDT 7:48 PM EDT
Astronomical Twilight 6:07 AM EDT 8:16 PM EDT
Moon 5:22 AM EDT (10/13) 5:35 PM EDT (10/13)
Length of Visible Light 12h 16m
Length of Day
11h 27m
Waning Crescent, 5% of the Moon is Illuminated
Oct 13
Waning Crescent
Oct 15
New
Oct 21
First Quarter
Oct 29
Full
Nov 6
Last Quarter

Hourly Weather History & Observations

Time (EDT) Temp. Dew Point Humidity Pressure Visibility Wind Dir Wind Speed Gust Speed Precip Events Conditions
12:55 AM 66.2 °F 63.0 °F 89% 30.23 in 10.0 mi Calm Calm - N/A   Mostly Cloudy
1:55 AM 65.5 °F 62.1 °F 89% 30.22 in 10.0 mi NE 3.5 mph - N/A   Mostly Cloudy
2:55 AM 63.7 °F 61.9 °F 94% 30.22 in 10.0 mi NNE 4.6 mph - N/A   Clear
3:55 AM 62.6 °F 61.5 °F 96% 30.22 in 10.0 mi NNE 4.6 mph - N/A   Clear
4:55 AM 62.4 °F 61.0 °F 95% 30.23 in 10.0 mi NNE 5.8 mph - N/A   Clear
5:55 AM 61.7 °F 59.7 °F 93% 30.25 in 10.0 mi NNE 5.8 mph - N/A   Clear
6:55 AM 61.2 °F 59.0 °F 93% 30.27 in 10.0 mi NNE 4.6 mph - N/A   Clear
7:55 AM 60.6 °F 57.7 °F 90% 30.28 in 10.0 mi NNE 6.9 mph - N/A   Clear
8:55 AM 64.2 °F 57.7 °F 79% 30.30 in 10.0 mi NNE 8.1 mph - N/A   Clear
9:55 AM 69.1 °F 58.6 °F 69% 30.31 in 10.0 mi NNE 9.2 mph - N/A   Clear
10:55 AM 73.4 °F 60.6 °F 64% 30.31 in 10.0 mi NNE 9.2 mph - N/A   Clear
11:55 AM 76.8 °F 62.8 °F 62% 30.31 in 10.0 mi NE 5.8 mph - N/A   Clear
12:55 PM 77.9 °F 63.3 °F 61% 30.30 in 10.0 mi ENE 10.4 mph - N/A   Mostly Cloudy
1:55 PM 77.5 °F 63.5 °F 62% 30.28 in 10.0 mi ENE 9.2 mph - N/A   Overcast
2:55 PM 78.3 °F 63.3 °F 60% 30.25 in 10.0 mi ENE 12.7 mph - N/A   Mostly Cloudy
3:22 PM 77.0 °F 64.4 °F 65% 30.25 in 10.0 mi ENE 10.4 mph - N/A   Mostly Cloudy
3:45 PM 77.0 °F 64.4 °F 65% 30.25 in 10.0 mi ENE 9.2 mph - N/A   Overcast
3:55 PM 76.5 °F 64.6 °F 67% 30.25 in 10.0 mi ENE 9.2 mph 16.1 mph N/A   Overcast
4:24 PM 77.0 °F 64.4 °F 65% 30.25 in 10.0 mi NE 11.5 mph - N/A   Overcast
4:41 PM 75.2 °F 64.4 °F 69% 30.25 in 10.0 mi ENE 11.5 mph - N/A   Mostly Cloudy
4:55 PM 76.8 °F 64.4 °F 65% 30.24 in 10.0 mi ENE 10.4 mph - N/A   Scattered Clouds
5:05 PM 77.0 °F 64.4 °F 65% 30.24 in 10.0 mi ENE 10.4 mph 18.4 mph N/A   Mostly Cloudy
5:23 PM 75.2 °F 62.6 °F 65% 30.25 in 10.0 mi ENE 13.8 mph - N/A   Mostly Cloudy
5:29 PM 75.2 °F 62.6 °F 65% 30.25 in 10.0 mi East 11.5 mph 19.6 mph N/A   Mostly Cloudy
5:42 PM 75.2 °F 62.6 °F 65% 30.25 in 10.0 mi ENE 12.7 mph 21.9 mph N/A   Mostly Cloudy
5:55 PM 73.6 °F 63.1 °F 70% 30.26 in 10.0 mi East 13.8 mph - N/A   Mostly Cloudy
6:55 PM 70.7 °F 62.4 °F 75% 30.26 in 10.0 mi ENE 8.1 mph - N/A   Clear
7:55 PM 67.8 °F 61.7 °F 81% 30.27 in 10.0 mi ENE 5.8 mph - N/A   Clear
8:55 PM 68.0 °F 60.3 °F 76% 30.28 in 10.0 mi NE 6.9 mph - N/A   Mostly Cloudy
9:55 PM 68.9 °F 58.8 °F 70% 30.28 in 10.0 mi ENE 9.2 mph - N/A   Overcast
10:55 PM 68.0 °F 58.3 °F 71% 30.28 in 10.0 mi NE 5.8 mph - N/A   Overcast
11:55 PM 66.4 °F 57.7 °F 74% 30.26 in 10.0 mi NNE 4.6 mph - N/A   Scattered Clouds